This is the latest recevied weather packets stored in our database for station/object KN6KS. If no packets are shown the sender has not sent any weather packets the latest 10 day(s).
| Time | Temp. | Humidity | Pressure | Rain* | Wind** | Luminosity | Snow |
|---|---|---|---|---|---|---|---|
| 1777748050 | 27.78° C | 21% | 1013.3 hPa | 0 mm | - | 632 W/m² | - |
| 1777747747 | 27.22° C | 21% | 1013.1 hPa | 0 mm | - | 648 W/m² | - |
| 1777747442 | 26.67° C | 21% | 1013.3 hPa | 0 mm | - | 748 W/m² | - |
| 1777747139 | 26.67° C | 21% | 1013.6 hPa | 0 mm | - | 726 W/m² | - |
| 1777746835 | 26.67° C | 20% | 1013.5 hPa | 0 mm | - | 676 W/m² | - |
| 1777746530 | 27.22° C | 21% | 1013.5 hPa | 0 mm | - | 764 W/m² | - |
| 1777746226 | 26.67° C | 21% | 1013.8 hPa | 0 mm | - | 628 W/m² | - |
| 1777745923 | 26.67° C | 20% | 1013.6 hPa | 0 mm | - | 608 W/m² | - |
| 1777745621 | 26.11° C | 22% | 1013.6 hPa | 0 mm | - | 689 W/m² | - |
| 1777745319 | 27.22° C | 21% | 1013.8 hPa | 0 mm | - | 738 W/m² | - |
| 1777745010 | 26.67° C | 22% | 1013.8 hPa | 0 mm | - | 714 W/m² | - |
| 1777744706 | 26.11° C | 23% | 1013.9 hPa | 0 mm | - | 750 W/m² | - |
| 1777744400 | 25° C | 23% | 1013.8 hPa | 0 mm | - | 764 W/m² | - |
| 1777744098 | 24.44° C | 25% | 1014.3 hPa | 0 mm | - | 705 W/m² | - |
| 1777743795 | 25.56° C | 24% | 1014 hPa | 0 mm | - | 738 W/m² | - |
| 1777743491 | 25.56° C | 24% | 1014.1 hPa | 0 mm | - | 745 W/m² | - |
| 1777743188 | 25.56° C | 23% | 1014 hPa | 0 mm | - | 596 W/m² | - |
| 1777742886 | 24.44° C | 25% | 1014.3 hPa | 0 mm | - | 757 W/m² | - |
| 1777742583 | 23.89° C | 24% | 1014.3 hPa | 0 mm | - | 781 W/m² | - |
| 1777742279 | 25° C | 25% | 1014.1 hPa | 0 mm | - | 666 W/m² | - |
| 1777741975 | 24.44° C | 25% | 1014.1 hPa | 0 mm | - | 759 W/m² | - |
| 1777741672 | 23.89° C | 27% | 1014.3 hPa | 0 mm | - | 726 W/m² | - |
| 1777741363 | 23.89° C | 26% | 1014.3 hPa | 0 mm | - | 735 W/m² | - |
| 1777741059 | 23.89° C | 27% | 1014.5 hPa | 0 mm | - | 714 W/m² | - |
| 1777740757 | 23.89° C | 28% | 1014.3 hPa | 0 mm | - | 719 W/m² | - |
* Rain latest hour (hover to see other rain measurements)
** Current wind speed in m/s (hover to see current wind gust speed)